Bismarck, ND

4:01 PM CDT on September 27, 2016 (GMT -0500)
Bismarck Municipal

Weather History for KBIS - September, 2011

Change the Weather History Date:

Sunday, September 4, 2011

  Actual Average Record
Temperature  
Mean Temperature 56 °F 64 °F  
Max Temperature 70 °F 77 °F 100 °F (1978)
Min Temperature 42 °F 50 °F 32 °F (1962)
Degree Days  
Heating Degree Days 9 4  
Month to date heating degree days 16 14  
Since 1 July heating degree days 22 69  
Cooling Degree Days 0 3  
Month to date cooling degree days 0 12  
Year to date cooling degree days 400 493  
Growing Degree Days 6 (Base 50)    
Moisture  
Dew Point 43 °F    
Average Humidity 63    
Maximum Humidity 89    
Minimum Humidity 36    
Precipitation  
Precipitation 0.00 in 0.07 in 0.87 in (1971)
Month to date precipitation 0.04 0.26  
Year to date precipitation 20.42 14.07  
Snow  
Snow 0.00 in 0.00 in 0.00 in (2002)
Month to date snowfall 0.0 0.0  
Since 1 July snowfall 0.0 0.0  
Since 1 September snowfall 0.0 0.0  
Snow Depth 0.00 in    
Sea Level Pressure  
Sea Level Pressure 30.25 in    
Wind  
Wind Speed 4 mph (WNW)    
Max Wind Speed 13 mph    
Max Gust Speed 18 mph    
Visibility 10 miles    
Events      
T = Trace of Precipitation, MM = Missing Value Source: NWS Daily Summary

Daily Weather History Graph

Daily Weather History Graph

Search for Another Location

Airport or City:

Trip Planner

Search our weather history database for the weather conditions in past years. The results will help you decide how hot, cold, wet, or windy it might be!

Date:

Astronomy

Sep. 04, 2011 Rise Set
Actual Time 7:06 AM CDT 8:16 PM CDT
Civil Twilight 6:35 AM CDT 8:48 PM CDT
Nautical Twilight 5:57 AM CDT 9:25 PM CDT
Astronomical Twilight 5:17 AM CDT 10:05 PM CDT
Moon 3:24 PM CDT (9/4) No Moon Set
Length of Visible Light 14h 12m
Length of Day
13h 10m
Waxing Crescent, 50% of the Moon is Illuminated
Sep 4
Waxing Crescent
Sep 4
First Quarter
Sep 12
Full
Sep 20
Last Quarter
Sep 27
New

Hourly Weather History & Observations

Time (CDT) Temp. Windchill Dew Point Humidity Pressure Visibility Wind Dir Wind Speed Gust Speed Precip Events Conditions
12:52 AM 51.1 °F - 41.0 °F 68% 30.23 in 10.0 mi NW 8.1 mph - N/A   Clear
1:52 AM 48.9 °F - 41.0 °F 74% 30.24 in 10.0 mi WNW 6.9 mph - N/A   Clear
2:52 AM 48.0 °F - 41.0 °F 77% 30.25 in 10.0 mi WNW 6.9 mph - N/A   Clear
3:52 AM 46.9 °F - 42.1 °F 83% 30.26 in 10.0 mi WNW 5.8 mph - N/A   Clear
4:52 AM 46.0 °F 43.1 °F 42.1 °F 86% 30.27 in 10.0 mi WNW 5.8 mph - N/A   Clear
5:52 AM 44.1 °F 41.5 °F 41.0 °F 89% 30.28 in 10.0 mi West 4.6 mph - N/A   Clear
6:52 AM 43.0 °F 39.5 °F 39.9 °F 89% 30.30 in 10.0 mi West 5.8 mph - N/A   Clear
7:52 AM 46.0 °F 44.8 °F 42.1 °F 86% 30.31 in 10.0 mi WNW 3.5 mph - N/A   Clear
8:52 AM 51.1 °F - 43.0 °F 74% 30.31 in 10.0 mi WNW 4.6 mph - N/A   Clear
9:52 AM 55.0 °F - 45.0 °F 69% 30.32 in 10.0 mi West 4.6 mph - N/A   Clear
10:52 AM 60.1 °F - 46.0 °F 60% 30.32 in 10.0 mi NW 4.6 mph - N/A   Clear
11:52 AM 63.0 °F - 45.0 °F 52% 30.32 in 10.0 mi West 3.5 mph - N/A   Clear
12:52 PM 64.9 °F - 43.0 °F 45% 30.30 in 10.0 mi NW 8.1 mph - N/A   Clear
1:52 PM 66.9 °F - 43.0 °F 42% 30.28 in 10.0 mi Calm Calm - N/A   Partly Cloudy
2:52 PM 66.9 °F - 39.0 °F 36% 30.26 in 10.0 mi Calm Calm - N/A   Clear
3:52 PM 69.1 °F - 41.0 °F 36% 30.25 in 10.0 mi Calm Calm - N/A   Clear
4:52 PM 69.1 °F - 41.0 °F 36% 30.23 in 10.0 mi Variable 4.6 mph - N/A   Clear
5:52 PM 69.1 °F - 41.0 °F 36% 30.22 in 10.0 mi SW 3.5 mph - N/A   Clear
6:52 PM 66.2 °F - 42.8 °F 43% 30.20 in 10.0 mi East 3.5 mph - N/A   Clear
7:52 PM 60.1 °F - 48.0 °F 64% 30.21 in 10.0 mi East 6.9 mph - N/A   Clear
8:52 PM 51.1 °F - 46.0 °F 83% 30.21 in 10.0 mi ESE 5.8 mph - N/A   Clear
9:52 PM 51.1 °F - 45.0 °F 80% 30.19 in 10.0 mi SE 3.5 mph - N/A   Clear
10:52 PM 48.2 °F - 42.8 °F 82% 30.17 in 10.0 mi ESE 3.5 mph - N/A   Clear
11:52 PM 50.0 °F - 41.0 °F 71% 30.18 in 10.0 mi SE 4.6 mph - N/A   Clear